Back to catalog

FREGAT R/B

LostHEO
NORAD 40316·ROCKET BODY·🇷🇺 Russia

Launched Nov 30, 2014 from Plesetsk Cosmodrome

Loading…

Next Passes (next 24 hours)

TLE

StaleSource: Space-Track

Epoch: Aug 5, 2026, 18:54 UTC

1 40316U 14075B   26217.78779522  .00000102  00000-0  00000+0 0  9998
2 40316  63.5567 195.3259 0041970 137.5565 222.7670  2.08635462 88991

Track FREGAT R/B in real time with AllMySat

Download on the App Store